CSEGB LPPT-LPCS

Flight info

Callsign CSEGB
Flight time 0h 17m
Altitude 2000
Route LPPT DCT LPCS
Aircraft C172/L-SFG/C

Departure

Time 2026-04-22 18:21
Airport Lisbon Humberto Delgado Airport (LPPT)

Arrival

Time 2026-04-22 18:39
Airport Cascais Airport (LPCS)
Time Latitude Longitude Altitude Speed Heading
2026-04-22 18:06 38.77892 -9.13191 327 ft 0 kts 16°
2026-04-22 18:16 38.77891 -9.13195 328 ft 4 kts 200°
2026-04-22 18:16 38.77804 -9.13211 326 ft 16 kts 180°
2026-04-22 18:16 38.77737 -9.13289 328 ft 16 kts 257°
2026-04-22 18:17 38.77816 -9.13361 333 ft 18 kts 348°
2026-04-22 18:17 38.77954 -9.13394 338 ft 22 kts 348°
2026-04-22 18:17 38.78111 -9.13378 342 ft 23 kts 25°
2026-04-22 18:17 38.78265 -9.13294 343 ft 23 kts 23°
2026-04-22 18:18 38.78419 -9.13219 343 ft 22 kts
2026-04-22 18:18 38.78521 -9.13254 347 ft 1 kts 316°
2026-04-22 18:18 38.78529 -9.13266 348 ft 3 kts 300°
2026-04-22 18:18 38.78546 -9.13346 352 ft 14 kts 255°
2026-04-22 18:19 38.78511 -9.13390 355 ft 0 kts 203°
2026-04-22 18:20 38.78362 -9.13468 357 ft 52 kts 201°
2026-04-22 18:20 38.77911 -9.13724 476 ft 81 kts 192°
2026-04-22 18:20 38.77361 -9.14115 664 ft 98 kts 212°
2026-04-22 18:21 38.76880 -9.14770 949 ft 101 kts 220°
2026-04-22 18:21 38.76407 -9.15445 1197 ft 102 kts 220°
2026-04-22 18:21 38.75922 -9.16115 1443 ft 103 kts 219°
2026-04-22 18:21 38.75402 -9.16747 1648 ft 108 kts 217°
2026-04-22 18:22 38.74794 -9.17451 1680 ft 125 kts 217°
2026-04-22 18:22 38.74103 -9.18215 1674 ft 135 kts 217°
2026-04-22 18:22 38.73391 -9.18988 1667 ft 133 kts 217°
2026-04-22 18:22 38.72683 -9.19743 1653 ft 132 kts 217°
2026-04-22 18:23 38.71972 -9.20483 1644 ft 131 kts 216°
2026-04-22 18:23 38.71356 -9.21131 1636 ft 127 kts 217°
2026-04-22 18:23 38.70677 -9.21825 1627 ft 124 kts 217°
2026-04-22 18:24 38.69296 -9.23141 1608 ft 122 kts 218°
2026-04-22 18:24 38.68852 -9.24005 1597 ft 117 kts 261°
2026-04-22 18:24 38.69040 -9.26037 1587 ft 113 kts 284°
2026-04-22 18:25 38.69161 -9.27022 1581 ft 111 kts 283°
2026-04-22 18:25 38.69283 -9.27996 1574 ft 110 kts 283°
2026-04-22 18:25 38.69406 -9.28965 1570 ft 108 kts 283°
2026-04-22 18:26 38.70097 -9.30580 1558 ft 105 kts 317°
2026-04-22 18:26 38.70606 -9.31264 1557 ft 105 kts 316°
2026-04-22 18:26 38.71121 -9.31921 1552 ft 104 kts 317°
2026-04-22 18:26 38.71644 -9.32568 1548 ft 104 kts 317°
2026-04-22 18:27 38.72225 -9.33131 1544 ft 104 kts 327°
2026-04-22 18:27 38.72842 -9.33591 1555 ft 102 kts 338°
2026-04-22 18:27 38.73514 -9.33893 1567 ft 101 kts 340°
2026-04-22 18:27 38.74183 -9.34183 1573 ft 102 kts 342°
2026-04-22 18:28 38.74812 -9.34619 1509 ft 102 kts 319°
2026-04-22 18:28 38.75143 -9.35386 1522 ft 98 kts 273°
2026-04-22 18:28 38.74746 -9.36097 1417 ft 106 kts 205°
2026-04-22 18:28 38.73987 -9.36032 832 ft 113 kts 165°
2026-04-22 18:29 38.73257 -9.35784 451 ft 101 kts 165°
2026-04-22 18:29 38.72649 -9.35564 325 ft 78 kts 165°
2026-04-22 18:29 38.72125 -9.35365 360 ft 86 kts 163°
2026-04-22 18:29 38.71526 -9.35159 548 ft 86 kts 166°
2026-04-22 18:30 38.71013 -9.35282 776 ft 73 kts 229°
2026-04-22 18:30 38.70937 -9.36380 1041 ft 68 kts 323°
2026-04-22 18:30 38.71389 -9.36565 1216 ft 67 kts 345°
2026-04-22 18:31 38.71844 -9.36731 1359 ft 72 kts 342°
2026-04-22 18:31 38.72332 -9.36947 1495 ft 78 kts 339°
2026-04-22 18:31 38.72870 -9.37169 1532 ft 81 kts 343°
2026-04-22 18:31 38.73410 -9.37388 1547 ft 82 kts 341°
2026-04-22 18:32 38.73957 -9.37630 1513 ft 84 kts 339°
2026-04-22 18:32 38.74496 -9.37616 1404 ft 79 kts 25°
2026-04-22 18:32 38.74730 -9.36961 1267 ft 91 kts 92°
2026-04-22 18:32 38.74389 -9.36259 868 ft 100 kts 144°
2026-04-22 18:33 38.73753 -9.35967 564 ft 94 kts 164°
2026-04-22 18:33 38.73163 -9.35760 433 ft 83 kts 165°
2026-04-22 18:33 38.72644 -9.35561 367 ft 75 kts 166°
2026-04-22 18:33 38.72144 -9.35375 386 ft 77 kts 167°
2026-04-22 18:34 38.71564 -9.35187 578 ft 84 kts 188°
2026-04-22 18:34 38.71119 -9.35614 775 ft 88 kts 243°
2026-04-22 18:34 38.70895 -9.36372 1001 ft 91 kts 253°
2026-04-22 18:34 38.70793 -9.37162 1230 ft 90 kts 289°
2026-04-22 18:35 38.71142 -9.37823 1395 ft 97 kts 317°
2026-04-22 18:35 38.71757 -9.38221 1450 ft 102 kts 343°
2026-04-22 18:35 38.72459 -9.38460 1480 ft 107 kts 346°
2026-04-22 18:35 38.73184 -9.38705 1470 ft 104 kts 343°
2026-04-22 18:36 38.73884 -9.38962 1334 ft 108 kts 341°
2026-04-22 18:36 38.74612 -9.39229 1187 ft 108 kts 346°
2026-04-22 18:36 38.75257 -9.39167 1240 ft 85 kts 30°
2026-04-22 18:36 38.75617 -9.38584 1257 ft 81 kts 56°
2026-04-22 18:37 38.75747 -9.37881 1258 ft 84 kts 89°
2026-04-22 18:37 38.75531 -9.37157 1167 ft 91 kts 117°
2026-04-22 18:37 38.75255 -9.36716 1040 ft 100 kts 133°
2026-04-22 18:37 38.74424 -9.36211 787 ft 99 kts 166°
2026-04-22 18:38 38.73780 -9.35978 565 ft 91 kts 158°
2026-04-22 18:38 38.73206 -9.35774 407 ft 78 kts 163°
2026-04-22 18:38 38.72730 -9.35600 328 ft 61 kts 165°
2026-04-22 18:39 38.72527 -9.35619 320 ft 0 kts 251°
2026-04-22 18:39 38.72521 -9.35629 320 ft 6 kts 199°
2026-04-22 18:40 38.72466 -9.35617 318 ft 20 kts 173°
2026-04-22 18:40 38.72340 -9.35574 316 ft 7 kts 183°
2026-04-22 18:40 38.72314 -9.35660 315 ft 17 kts 255°
2026-04-22 18:41 38.72223 -9.35744 313 ft 24 kts 168°
2026-04-22 18:41 38.72185 -9.35698 310 ft 1 kts 232°
2026-04-22 18:41 38.72185 -9.35702 310 ft 0 kts 265°